STARLINK-1890 (47173 NORAD) Tracking and Keplerian Element Data
This shows tracking and keplerian element data for the satellite.
Feedback or suggestion? Click here.
Element | Value |
Catalog | 47173 |
Name | STARLINK-1890 |
Epoch Orbit | 182 |
Epoch Day | 20.91667824 |
Epoch Year | 2021 |
RAAN | 75.0052 |
Inclination | 53.0557 |
Eccentricity | 0.0001198 |
Argument of Perigee | 70.6443 |
Mean Anonmoly | 334.4032 |
Mean Motion | 15.39976559 |
Decay Rate | -0.01083923 |
L1 | 1 47173U 20088BD 21020.91667824 -.01083923 00000-0 -29183-1 0 9990 |
L2 | 2 47173 53.0557 75.0052 0001198 70.6443 334.4032 15.39976559 1820 |
Live tracking and technical data element details for STARLINK-1890 (NORAD 47173). STARLINK-1890 can be tracked NOW for your location showing map with azimuth and elevation plus other details from your city location.
Track the satellite on the map from your city or location and see movement details for azimuth, elevation, latitude, longitude, range, height, and movement on the map or in text.
IsCatalogInMostPopularTable: catalog: 47173, numindb: 23
Update: records affected: 1
GetName: 47173 STARLINK-1890
Hit Count: updated at: Sat, 23 Jan 2021 18:02:34 GMT